Rose Hill, VA

10:45 PM EST on February 05, 2016 (GMT -0500)
Jonesville

Weather History for K0VG - October, 2013

Change the Weather History Date:

Monday, October 14, 2013

  Actual Average (KLOZ) Record (KLOZ)
Temperature  
Mean Temperature 67 °F 58 °F  
Max Temperature 77 °F 70 °F 83 °F (1962)
Min Temperature 57 °F 46 °F 25 °F (1988)
Degree Days  
Heating Degree Days 0 8  
Month to date heating degree days 86  
Since 1 July heating degree days 133  
Cooling Degree Days 2 1  
Month to date cooling degree days 16  
Year to date cooling degree days 1183  
Growing Degree Days 17 (Base 50)    
Moisture  
Dew Point 59 °F    
Average Humidity 79    
Maximum Humidity 100    
Minimum Humidity 47    
Precipitation  
Precipitation 0.00 in 0.10 in 2.06 in (2014)
Month to date precipitation 1.33  
Year to date precipitation 37.38  
Sea Level Pressure  
Sea Level Pressure 30.23 in    
Wind  
Wind Speed 1 mph (ESE)    
Max Wind Speed 7 mph    
Max Gust Speed -    
Visibility 9 miles    
Events      
T = Trace of Precipitation, MM = Missing Value Source: NWS Daily Summary

Daily Weather History Graph

Daily Weather History Graph

Search for Another Location

Airport or City:

Trip Planner

Search our weather history database for the weather conditions in past years. The results will help you decide how hot, cold, wet, or windy it might be!

Date:

Astronomy

Oct. 14, 2013 Rise Set
Actual Time 7:39 AM EDT 6:57 PM EDT
Civil Twilight 7:13 AM EDT 7:23 PM EDT
Nautical Twilight 6:43 AM EDT 7:53 PM EDT
Astronomical Twilight 6:13 AM EDT 8:23 PM EDT
Moon 4:20 PM EDT (10/14) 3:01 AM EDT (10/14)
Length of Visible Light 12h 09m
Length of Day
11h 17m
Waxing Gibbous, 79% of the Moon is Illuminated
Oct 14
Waxing Gibbous
Oct 18
Full
Oct 26
Last Quarter
Nov 3
New
Nov 10
First Quarter

Hourly Weather History & Observations

Time (EDT) Temp. Dew Point Humidity Pressure Visibility Wind Dir Wind Speed Gust Speed Precip Events Conditions
12:15 AM 62.6 °F 60.8 °F 94% 30.27 in 10.0 mi Calm Calm - N/A   Unknown
12:35 AM 62.6 °F 62.6 °F 100% 30.26 in 10.0 mi Calm Calm - N/A   Unknown
12:55 AM 62.6 °F 60.8 °F 94% 30.26 in 10.0 mi Calm Calm - N/A   Unknown
1:15 AM 62.6 °F 60.8 °F 94% 30.26 in 10.0 mi Calm Calm - N/A   Unknown
1:35 AM 62.6 °F 60.8 °F 94% 30.26 in 10.0 mi Calm Calm - N/A   Unknown
1:55 AM 62.6 °F 60.8 °F 94% 30.26 in 10.0 mi Calm Calm - N/A   Unknown
2:15 AM 62.6 °F 60.8 °F 94% 30.27 in 10.0 mi Calm Calm - N/A   Unknown
2:35 AM 62.6 °F 60.8 °F 94% 30.27 in 10.0 mi Calm Calm - N/A   Unknown
2:55 AM 62.6 °F 59.0 °F 88% 30.26 in 10.0 mi Calm Calm - N/A   Unknown
3:15 AM 62.6 °F 60.8 °F 94% 30.26 in 10.0 mi Calm Calm - N/A   Unknown
3:35 AM 60.8 °F 60.8 °F 100% 30.25 in 10.0 mi Calm Calm - N/A   Unknown
3:55 AM 59.0 °F 59.0 °F 100% 30.24 in 7.0 mi Calm Calm - N/A   Unknown
4:15 AM 59.0 °F 59.0 °F 100% 30.24 in 8.0 mi Calm Calm - N/A   Unknown
4:35 AM 57.2 °F 57.2 °F 100% 30.25 in 2.5 mi Calm Calm - N/A   Mist
4:55 AM 57.2 °F 57.2 °F 100% 30.25 in 7.0 mi Calm Calm - N/A   Unknown
5:15 AM 59.0 °F 57.2 °F 94% 30.25 in 8.0 mi Calm Calm - N/A   Unknown
5:35 AM 57.2 °F 57.2 °F 100% 30.26 in 7.0 mi Calm Calm - N/A   Unknown
5:55 AM 59.0 °F 59.0 °F 100% 30.26 in 10.0 mi Calm Calm - N/A   Unknown
6:15 AM 59.0 °F 59.0 °F 100% 30.26 in 7.0 mi Calm Calm - N/A   Unknown
6:35 AM 59.0 °F 59.0 °F 100% 30.26 in 6.0 mi Calm Calm - N/A   Mist
6:55 AM 59.0 °F 59.0 °F 100% 30.27 in 6.0 mi Calm Calm - N/A   Mist
7:15 AM 59.0 °F 59.0 °F 100% 30.26 in 6.0 mi Calm Calm - N/A   Mist
7:35 AM 59.0 °F 59.0 °F 100% 30.27 in 2.0 mi Calm Calm - N/A   Mist
7:55 AM 59.0 °F 59.0 °F 100% 30.28 in 3.0 mi Calm Calm - N/A   Mist
8:15 AM 59.0 °F 59.0 °F 100% 30.28 in 4.0 mi Calm Calm - N/A   Overcast
8:35 AM 60.8 °F 60.8 °F 100% 30.29 in 6.0 mi Calm Calm - N/A   Overcast
8:55 AM 62.6 °F 60.8 °F 94% 30.29 in 10.0 mi Calm Calm - N/A   Overcast
9:15 AM 62.6 °F 60.8 °F 94% 30.30 in 9.0 mi Calm Calm - N/A   Overcast
9:35 AM 62.6 °F 59.0 °F 88% 30.30 in 10.0 mi Calm Calm - N/A   Overcast
9:55 AM 62.6 °F 60.8 °F 94% 30.29 in 10.0 mi Calm Calm - N/A   Overcast
10:15 AM 66.2 °F 60.8 °F 83% 30.29 in 10.0 mi Calm Calm - N/A   Scattered Clouds
10:35 AM 68.0 °F 60.8 °F 78% 30.29 in 10.0 mi Calm Calm - N/A   Partly Cloudy
10:55 AM 69.8 °F 60.8 °F 73% 30.28 in 10.0 mi Calm Calm - N/A   Mostly Cloudy
11:15 AM 69.8 °F 60.8 °F 73% 30.28 in 10.0 mi NE 5.8 mph - N/A   Scattered Clouds
11:35 AM 71.6 °F 59.0 °F 64% 30.27 in 10.0 mi ESE 6.9 mph - N/A   Mostly Cloudy
11:55 AM 71.6 °F 59.0 °F 64% 30.27 in 10.0 mi Calm Calm - N/A   Mostly Cloudy
12:15 PM 73.4 °F 59.0 °F 61% 30.26 in 10.0 mi Calm Calm - N/A   Scattered Clouds
12:35 PM 73.4 °F 57.2 °F 57% 30.25 in 10.0 mi NE 6.9 mph - N/A   Partly Cloudy
12:55 PM 75.2 °F 59.0 °F 57% 30.24 in 10.0 mi East 3.5 mph - N/A   Scattered Clouds
1:15 PM 75.2 °F 57.2 °F 53% 30.23 in 10.0 mi ESE 6.9 mph - N/A   Scattered Clouds
1:35 PM 75.2 °F 57.2 °F 53% 30.23 in 10.0 mi ENE 4.6 mph - N/A   Scattered Clouds
1:55 PM 75.2 °F 55.4 °F 50% 30.21 in 10.0 mi ENE 6.9 mph - N/A   Scattered Clouds
2:15 PM 75.2 °F 55.4 °F 50% 30.20 in 10.0 mi SE 5.8 mph - N/A   Partly Cloudy
2:35 PM 75.2 °F 55.4 °F 50% 30.20 in 10.0 mi ESE 3.5 mph - N/A   Scattered Clouds
2:55 PM 75.2 °F 55.4 °F 50% 30.19 in 10.0 mi Calm Calm - N/A   Mostly Cloudy
3:15 PM 75.2 °F 55.4 °F 50% 30.19 in 10.0 mi ESE 5.8 mph - N/A   Mostly Cloudy
3:35 PM 77.0 °F 55.4 °F 47% 30.18 in 10.0 mi South 6.9 mph - N/A   Scattered Clouds
3:55 PM 77.0 °F 55.4 °F 47% 30.17 in 10.0 mi SE 6.9 mph - N/A   Scattered Clouds
4:15 PM 77.0 °F 55.4 °F 47% 30.17 in 10.0 mi East 3.5 mph - N/A   Mostly Cloudy
4:35 PM 75.2 °F 55.4 °F 50% 30.17 in 10.0 mi Calm Calm - N/A   Scattered Clouds
4:55 PM 77.0 °F 55.4 °F 47% 30.17 in 10.0 mi SE 4.6 mph - N/A   Mostly Cloudy
5:15 PM 75.2 °F 55.4 °F 50% 30.16 in 10.0 mi ESE 3.5 mph - N/A   Scattered Clouds
5:35 PM 75.2 °F 55.4 °F 50% 30.16 in 10.0 mi Calm Calm - N/A   Clear
5:55 PM 75.2 °F 55.4 °F 50% 30.17 in 10.0 mi Calm Calm - N/A   Scattered Clouds
6:15 PM 73.4 °F 59.0 °F 61% 30.18 in 10.0 mi Calm Calm - N/A   Mostly Cloudy
6:35 PM 71.6 °F 59.0 °F 64% 30.18 in 10.0 mi Calm Calm - N/A   Mostly Cloudy
6:55 PM 69.8 °F 60.8 °F 73% 30.19 in 10.0 mi Calm Calm - N/A   Overcast
7:15 PM 69.8 °F 60.8 °F 73% 30.19 in 10.0 mi Calm Calm - N/A   Unknown
7:35 PM 69.8 °F 60.8 °F 73% 30.19 in 10.0 mi Calm Calm - N/A   Unknown
7:55 PM 69.8 °F 60.8 °F 73% 30.20 in 10.0 mi Calm Calm - N/A   Unknown
8:15 PM 68.0 °F 60.8 °F 78% 30.20 in 10.0 mi Calm Calm - N/A   Unknown
8:35 PM 68.0 °F 60.8 °F 78% 30.20 in 10.0 mi Calm Calm - N/A   Unknown
8:55 PM 68.0 °F 60.8 °F 78% 30.20 in 10.0 mi Calm Calm - N/A   Unknown
9:15 PM 66.2 °F 60.8 °F 83% 30.19 in 10.0 mi Calm Calm - N/A   Unknown
9:35 PM 66.2 °F 60.8 °F 83% 30.20 in 10.0 mi Calm Calm - N/A   Unknown
9:55 PM 64.4 °F 60.8 °F 88% 30.20 in 10.0 mi Calm Calm - N/A   Unknown
10:15 PM 64.4 °F 62.6 °F 94% 30.20 in 10.0 mi Calm Calm - N/A   Unknown
10:35 PM 64.4 °F 60.8 °F 88% 30.21 in 10.0 mi Calm Calm - N/A   Unknown
10:55 PM 64.4 °F 60.8 °F 88% 30.21 in 10.0 mi Calm Calm - N/A   Unknown
11:15 PM 64.4 °F 59.0 °F 83% 30.21 in 10.0 mi Calm Calm - N/A   Unknown
11:35 PM 64.4 °F 59.0 °F 83% 30.21 in 10.0 mi Calm Calm - N/A   Unknown
11:55 PM 62.6 °F 59.0 °F 88% 30.21 in 10.0 mi Calm Calm - N/A   Unknown